Jackson, MN

5:28 AM CST on December 14, 2017 (GMT -0600)
Jackson Municipal

Weather History for KMJQ - September, 2013

Change the Weather History Date:

Friday, September 20, 2013

  Actual Average Record
Temperature  
Mean Temperature 52 °F -  
Max Temperature 60 °F 68 °F 89 °F (2007)
Min Temperature 44 °F 45 °F 32 °F (2006)
Degree Days  
Heating Degree Days 13    
Growing Degree Days 2 (Base 50)    
Moisture  
Dew Point 45 °F    
Average Humidity 75    
Maximum Humidity 88    
Minimum Humidity 48    
Precipitation  
Precipitation 0.00 in - - ()
Sea Level Pressure  
Sea Level Pressure 29.96 in    
Wind  
Wind Speed 12 mph (WNW)    
Max Wind Speed 21 mph    
Max Gust Speed 26 mph    
Visibility 10 miles    
Events      
Averages and records for this station are not official NWS values.
T = Trace of Precipitation, MM = Missing Value Source: NWS Daily Summary

Daily Weather History Graph

Daily Weather History Graph

Search for Another Location

Airport or City:

Trip Planner

Search our weather history database for the weather conditions in past years. The results will help you decide how hot, cold, wet, or windy it might be!

Date:

Astronomy

Sep. 20, 2013 Rise Set
Actual Time 7:05 AM CDT 7:20 PM CDT
Civil Twilight 6:36 AM CDT 7:49 PM CDT
Nautical Twilight 6:02 AM CDT 8:22 PM CDT
Astronomical Twilight 5:28 AM CDT 8:57 PM CDT
Moon 7:50 PM CDT (9/20) 8:24 AM CDT (9/20)
Length of Visible Light 13h 12m
Length of Day
12h 15m
Full, 98% of the Moon is Illuminated
Sep 20
Full
Sep 26
Last Quarter
Oct 4
New
Oct 11
First Quarter
Oct 18
Full

Hourly Weather History & Observations

Time (CDT) Temp. Windchill Dew Point Humidity Pressure Visibility Wind Dir Wind Speed Gust Speed Precip Events Conditions
12:13 AM 59.0 °F - 50.0 °F 72% 29.93 in 10.0 mi WNW 11.5 mph - N/A   Mostly Cloudy
12:33 AM 59.0 °F - 50.0 °F 72% 29.93 in 10.0 mi WNW 13.8 mph 18.4 mph N/A   Mostly Cloudy
12:53 AM 57.2 °F - 50.0 °F 77% 29.93 in 10.0 mi WNW 10.4 mph - N/A   Mostly Cloudy
1:14 AM 55.4 °F - 50.0 °F 82% 29.93 in 10.0 mi WNW 11.5 mph 16.1 mph N/A   Scattered Clouds
1:33 AM 55.4 °F - 50.0 °F 82% 29.93 in 10.0 mi WNW 11.5 mph - N/A   Scattered Clouds
1:53 AM 55.4 °F - 48.2 °F 77% 29.92 in 10.0 mi West 11.5 mph - N/A   Clear
2:14 AM 53.6 °F - 48.2 °F 82% 29.93 in 10.0 mi West 10.4 mph - N/A   Clear
2:33 AM 53.6 °F - 46.4 °F 77% 29.93 in 10.0 mi West 8.1 mph - N/A   Clear
2:53 AM 51.8 °F - 46.4 °F 82% 29.93 in 10.0 mi West 10.4 mph - N/A   Clear
3:13 AM 51.8 °F - 46.4 °F 82% 29.93 in 10.0 mi West 10.4 mph - N/A   Clear
3:33 AM 51.8 °F - 46.4 °F 82% 29.94 in 10.0 mi West 11.5 mph - N/A   Clear
3:54 AM 51.8 °F - 46.4 °F 82% 29.93 in 10.0 mi West 10.4 mph - N/A   Clear
4:13 AM 51.8 °F - 46.4 °F 82% 29.93 in 10.0 mi West 10.4 mph - N/A   Clear
4:33 AM 50.0 °F - 44.6 °F 82% 29.93 in 10.0 mi West 11.5 mph 17.3 mph N/A   Clear
4:54 AM 50.0 °F - 44.6 °F 82% 29.93 in 10.0 mi West 12.7 mph 18.4 mph N/A   Scattered Clouds
5:13 AM 50.0 °F - 44.6 °F 82% 29.93 in 10.0 mi West 10.4 mph - N/A   Scattered Clouds
5:33 AM 50.0 °F - 44.6 °F 82% 29.92 in 10.0 mi West 10.4 mph - N/A   Clear
5:54 AM 50.0 °F - 44.6 °F 82% 29.92 in 10.0 mi West 12.7 mph - N/A   Scattered Clouds
6:13 AM 50.0 °F - 46.4 °F 87% 29.92 in 10.0 mi West 12.7 mph 19.6 mph N/A   Overcast
6:33 AM 50.0 °F - 46.4 °F 87% 29.93 in 10.0 mi West 11.5 mph - N/A   Overcast
6:54 AM 50.0 °F - 46.4 °F 87% 29.94 in 10.0 mi West 10.4 mph - N/A   Overcast
7:13 AM 50.0 °F - 46.4 °F 87% 29.94 in 10.0 mi West 10.4 mph - N/A   Overcast
7:33 AM 50.0 °F - 46.4 °F 87% 29.95 in 10.0 mi West 12.7 mph - N/A   Overcast
7:54 AM 50.0 °F - 46.4 °F 87% 29.95 in 10.0 mi WNW 11.5 mph - N/A   Overcast
8:13 AM 51.8 °F - 48.2 °F 88% 29.95 in 10.0 mi West 13.8 mph 18.4 mph N/A   Overcast
8:33 AM 53.6 °F - 48.2 °F 82% 29.95 in 10.0 mi West 11.5 mph 18.4 mph N/A   Overcast
8:54 AM 53.6 °F - 50.0 °F 88% 29.96 in 7.0 mi WNW 17.3 mph 21.9 mph N/A   Overcast
9:13 AM 53.6 °F - 50.0 °F 88% 29.96 in 3.0 mi WNW 13.8 mph - N/A   Overcast
9:33 AM 53.6 °F - 50.0 °F 88% 29.97 in 7.0 mi WNW 12.7 mph 19.6 mph N/A   Overcast
9:53 AM 53.6 °F - 50.0 °F 88% 29.98 in 5.0 mi WNW 15.0 mph 19.6 mph N/A   Haze
10:13 AM 55.4 °F - 50.0 °F 82% 29.98 in 10.0 mi WNW 11.5 mph 18.4 mph N/A   Overcast
10:33 AM 55.4 °F - 50.0 °F 82% 29.98 in 10.0 mi WNW 17.3 mph 21.9 mph N/A   Overcast
10:53 AM 55.4 °F - 50.0 °F 82% 29.98 in 10.0 mi NW 9.2 mph 17.3 mph N/A   Overcast
11:13 AM 59.0 °F - 48.2 °F 67% 29.98 in 10.0 mi WNW 18.4 mph 23.0 mph N/A   Overcast
11:33 AM 57.2 °F - 48.2 °F 72% 29.99 in 10.0 mi WNW 15.0 mph 21.9 mph N/A   Overcast
11:53 AM 57.2 °F - 46.4 °F 67% 29.99 in 10.0 mi NW 16.1 mph 24.2 mph N/A   Overcast
12:14 PM 57.2 °F - 46.4 °F 67% 29.99 in 10.0 mi WNW 15.0 mph 23.0 mph N/A   Overcast
12:33 PM 57.2 °F - 46.4 °F 67% 29.98 in 10.0 mi NW 17.3 mph - N/A   Overcast
12:53 PM 57.2 °F - 46.4 °F 67% 29.98 in 10.0 mi WNW 16.1 mph 19.6 mph N/A   Overcast
1:13 PM 59.0 °F - 46.4 °F 63% 29.98 in 10.0 mi NW 15.0 mph 20.7 mph N/A   Overcast
1:33 PM 57.2 °F - 46.4 °F 67% 29.98 in 10.0 mi WNW 15.0 mph 20.7 mph N/A   Overcast
1:53 PM 57.2 °F - 46.4 °F 67% 29.97 in 10.0 mi NW 16.1 mph - N/A   Overcast
2:13 PM 59.0 °F - 46.4 °F 63% 29.97 in 10.0 mi NW 11.5 mph 18.4 mph N/A   Overcast
2:33 PM 59.0 °F - 46.4 °F 63% 29.97 in 10.0 mi West 15.0 mph - N/A   Overcast
2:53 PM 59.0 °F - 46.4 °F 63% 29.96 in 10.0 mi WNW 15.0 mph - N/A   Overcast
3:13 PM 60.8 °F - 44.6 °F 55% 29.96 in 10.0 mi WNW 18.4 mph - N/A   Overcast
3:33 PM 59.0 °F - 44.6 °F 59% 29.96 in 10.0 mi WNW 20.7 mph 25.3 mph N/A   Overcast
3:53 PM 59.0 °F - 42.8 °F 55% 29.97 in 10.0 mi WNW 18.4 mph 24.2 mph N/A   Overcast
4:13 PM 57.2 °F - 42.8 °F 59% 29.97 in 10.0 mi WNW 18.4 mph 24.2 mph N/A   Overcast
4:33 PM 57.2 °F - 41.0 °F 55% 29.97 in 10.0 mi West 13.8 mph 21.9 mph N/A   Overcast
4:53 PM 59.0 °F - 39.2 °F 48% 29.97 in 10.0 mi WNW 18.4 mph 24.2 mph N/A   Mostly Cloudy
5:13 PM 59.0 °F - 39.2 °F 48% 29.97 in 10.0 mi NW 18.4 mph 26.5 mph N/A   Scattered Clouds
5:33 PM 59.0 °F - 39.2 °F 48% 29.97 in 10.0 mi NW 18.4 mph 25.3 mph N/A   Mostly Cloudy
5:53 PM 57.2 °F - 39.2 °F 51% 29.98 in 10.0 mi WNW 15.0 mph 18.4 mph N/A   Overcast
6:13 PM 55.4 °F - 39.2 °F 54% 29.98 in 10.0 mi WNW 11.5 mph - N/A   Overcast
6:33 PM 57.2 °F - 41.0 °F 55% 29.98 in 10.0 mi NW 8.1 mph 16.1 mph N/A   Overcast
6:53 PM 55.4 °F - 41.0 °F 58% 29.97 in 10.0 mi WNW 6.9 mph - N/A   Scattered Clouds
7:14 PM 51.8 °F - 41.0 °F 67% 29.97 in 10.0 mi WNW 5.8 mph - N/A   Clear
7:33 PM 50.0 °F - 41.0 °F 71% 29.97 in 10.0 mi WNW 4.6 mph - N/A   Clear
7:53 PM 50.0 °F - 41.0 °F 71% 29.98 in 10.0 mi WNW 3.5 mph - N/A   Clear
8:14 PM 50.0 °F - 41.0 °F 71% 29.98 in 10.0 mi WNW 3.5 mph - N/A   Clear
8:33 PM 48.2 °F - 41.0 °F 76% 29.98 in 10.0 mi West 3.5 mph - N/A   Clear
8:53 PM 46.4 °F - 41.0 °F 81% 29.98 in 10.0 mi Calm Calm - N/A   Clear
9:14 PM 46.4 °F 45.2 °F 41.0 °F 81% 29.99 in 10.0 mi West 3.5 mph - N/A   Clear
9:33 PM 46.4 °F - 41.0 °F 81% 29.99 in 10.0 mi Calm Calm - N/A   Clear
9:53 PM 46.4 °F - 41.0 °F 81% 29.99 in 10.0 mi Calm Calm - N/A   Clear
10:14 PM 44.6 °F - 39.2 °F 81% 30.00 in 10.0 mi Calm Calm - N/A   Clear
10:33 PM 44.6 °F 42.2 °F 41.0 °F 87% 30.00 in 10.0 mi WSW 4.6 mph - N/A   Clear
10:53 PM 44.6 °F 42.2 °F 41.0 °F 87% 30.00 in 10.0 mi West 4.6 mph - N/A   Clear
11:14 PM 44.6 °F 43.1 °F 41.0 °F 87% 30.00 in 10.0 mi West 3.5 mph - N/A   Clear
11:33 PM 44.6 °F 43.1 °F 41.0 °F 87% 30.00 in 10.0 mi West 3.5 mph - N/A   Clear
11:54 PM 44.6 °F 42.2 °F 41.0 °F 87% 29.99 in 10.0 mi West 4.6 mph - N/A   Clear